CAPE
1358 1732 2259 2626 2754 2749 2593 2518 2485 2378 2048 2013 1943 2030 1981 1811 1827 1904 1837 1791 1774 1781 1776 1735 1702 1659 1423 1329 1347 1454 1482 1476 1441 1394 1357 1378 1326 1287 1099 855 741 666 661 780 809 861 843 745 642 580 619 640 628 732 867 890 865 808 705 710 684 556 444 421 404 612 630 646 670 675 805 771 643 520 468 382 314 373 405 366 332 328 276 348 349
1361 1892 2279 2643 2715 2692 2655 2506 2389 2269 2125 2148 1998 1976 2005 1910 1966 1937 1892 1812 1914 1943 1923 1979 1909 1752 1622 1599 1652 1640 1577 1522 1614 1455 1412 1470 1430 1384 1264 1166 1194 888 640 573 571 706 699 681 572 543 568 585 606 651 656 691 686 715 686 656 527 530 536 516 442 714 662 617 613 599 571 543 456 436 418 324 305 266 282 355 313 201 107 115 216
1694 1995 2319 2637 2790 2756 2587 2439 2335 2308 2112 2113 1932 1961 2060 2035 1873 1964 1953 1905 1972 2017 2023 1988 1983 1926 1791 1687 1715 1713 1677 1622 1582 1566 1566 1418 1306 1279 1231 1077 950 776 752 825 835 849 760 612 546 602 621 622 647 617 587 648 677 720 788 758 720 689 638 636 584 567 575 592 570 534 463 363 362 451 459 472 458 337 337 274 224 226 116 67 9
1709 2034 2365 2637 2725 2665 2518 2404 2325 2333 2189 2120 2086 2006 2082 2020 2006 2026 2073 2033 2008 2052 2045 2060 2038 2047 2044 1968 1914 1793 1731 1663 1586 1473 1314 1132 1123 1146 1136 1107 1223 1276 1100 1012 968 912 922 730 636 638 743 748 696 685 600 632 671 669 716 793 705 636 618 654 731 636 610 571 539 414 399 135 256 351 298 281 249 263 264 232 161 128 194 235 149
1784 2083 2378 2472 2529 2420 2406 2313 2292 2135 2247 2249 2203 2183 2069 2022 2137 2085 2106 2078 2062 2050 2088 2103 2070 2056 2022 2040 2078 2008 1794 1669 1583 1483 1383 1272 1274 1327 1281 1276 1136 1165 1055 882 752 808 772 726 642 779 739 735 706 703 659 641 724 660 748 775 721 682 667 628 596 521 468 467 452 214 5 30 118 321 280 280 242 177 212 255 241 236 279 265 229
1886 2048 2318 2385 2364 2223 2151 2280 2185 2160 2136 2339 2123 2118 2052 2096 2108 2098 2103 2056 2090 2078 2089 2067 2123 2103 2036 2037 2043 2090 1913 1726 1567 1488 1560 1447 1458 1319 1423 1335 1321 1316 1228 1069 927 837 773 788 808 732 766 794 831 779 713 842 797 751 800 680 647 557 629 644 599 518 443 417 382 41 14 38 98 260 392 399 371 78 40 66 133 22 4 36 88
1597 1988 2093 2080 1995 2110 2155 2284 2067 2142 2200 2100 2269 2146 2108 2158 2185 2218 2118 2094 2057 2108 2025 2114 2061 2092 2034 2045 2079 2142 2113 1971 1838 1798 1607 1449 1427 1293 1192 1271 1184 1189 1007 947 850 879 852 866 762 693 562 559 511 678 866 919 985 930 953 830 623 604 855 1010 657 528 384 96 0 0 1 8 84 118 869 751 547 428 262 177 39 54 214 138 71
1401 1739 1878 1820 1835 2026 2281 2241 2240 2211 2254 2334 2277 2109 2135 2196 2267 2294 2254 2207 2252 2133 2070 2062 2077 2020 2012 1907 2002 2035 2080 1979 1984 1861 1568 1538 1476 1411 994 1254 1126 1047 993 894 852 866 910 993 904 931 875 743 788 939 1146 1173 1107 1064 960 949 909 753 853 906 924 448 295 256 0 0 4 8 55 236 363 390 503 486 470 323 115 138 34 15 45
1472 1581 1664 1800 1965 2071 2205 2232 2255 2263 2326 2229 2220 2084 2170 2230 2249 2285 2299 2279 2286 2150 2085 2063 2005 2048 1965 1904 1871 1886 1946 2014 1809 1592 1594 1627 1612 1454 1413 1032 1037 992 1025 1305 1023 983 947 1077 1076 1179 1345 1267 1214 1249 1374 1253 1152 1127 1092 1020 1068 1009 1035 983 980 1036 788 340 13 2 5 24 39 226 444 361 200 359 381 351 218 187 97 115 123
1414 1530 1619 1749 2116 2253 2188 2243 2316 2263 2310 2223 2159 2079 2157 2202 2270 2281 2323 2319 2218 2154 2085 2040 2044 2057 1984 1908 1814 1705 1693 1716 1620 1437 1537 1692 1667 1496 1304 1172 978 1138 1200 1056 1030 1172 1281 1248 1050 962 1288 1488 1478 1364 1274 1171 1130 1104 1134 1098 1084 1018 967 902 906 1025 688 314 19 0 142 617 423 447 426 237 182 83 25 1 252 242 105 119 65
1421 1504 1720 2003 2137 2205 2281 2169 2121 2228 2203 2214 2116 2089 2111 2215 2154 2275 2264 2260 2172 2118 2045 1965 1893 1834 1712 1762 1729 1862 1730 1611 1501 1459 1498 1467 1482 1415 1163 1028 994 1270 1018 1020 1037 1240 1259 1239 1179 1323 1602 1581 1497 1370 1233 1196 1115 1067 1076 1077 985 924 916 902 837 507 657 274 1 45 752 522 528 596 677 576 507 467 404 349 106 6 32 184 287
1431 1481 1816 1959 2392 2193 2337 2278 2188 2268 2227 2231 2152 2202 2284 2287 2321 2328 2273 2157 2129 2068 2005 1893 1947 1869 1856 1754 1720 1754 1676 1632 1684 1652 1568 1477 1369 1309 1176 1066 1280 1210 1102 1186 1213 1260 1290 1378 1433 1312 1296 1436 1464 1339 1244 1129 1007 965 972 1018 870 844 805 604 600 542 466 162 184 356 355 502 521 588 694 590 349 243 268 250 278 304 150 122 165
1426 1542 1775 2001 2100 2259 2358 2361 2398 2354 2263 2162 2258 2237 2285 2419 2425 2323 2245 2202 2163 2092 1964 1940 1991 2079 1972 1938 1914 1893 1828 1748 1753 1664 1532 1424 1310 1190 1250 1642 1922 1983 1671 1522 1597 1681 1704 1496 1340 1224 1192 1215 1231 1228 1138 1006 908 835 797 803 895 935 692 616 672 588 430 262 381 283 324 434 493 656 429 281 249 241 183 211 189 113 208 110 77
1341 1518 1738 1889 2040 2239 2341 2298 2429 2480 2350 2312 2371 2278 2442 2482 2445 2323 2302 2248 2168 2159 2136 2138 2132 2079 2032 1956 1844 1863 1906 1890 1816 1732 1629 1451 1350 1340 1474 1714 1794 1846 1914 1815 1900 1823 1583 1387 1277 1168 1060 1036 979 928 796 708 784 940 932 1053 1087 1098 859 548 696 594 337 398 401 298 305 339 384 581 587 531 361 272 118 103 96 155 112 74 79
1304 1438 1529 1611 1685 1841 2233 2304 2430 2550 2540 2448 2396 2411 2456 2448 2390 2309 2287 2223 2183 2194 2203 2145 2118 2066 1976 1966 1982 1962 1947 1895 1830 1805 1656 1546 1430 1462 1472 1435 1609 1739 1697 1580 1561 1705 1540 1339 1181 1039 948 876 770 665 649 719 828 1016 1138 1233 1286 1440 1097 524 649 492 373 436 397 328 284 359 647 503 473 413 379 301 244 238 232 104 65 165 218
1085 1205 1203 1226 1466 1816 1969 2188 2436 2635 2576 2504 2471 2541 2499 2400 2344 2363 2332 2336 2283 2250 2282 2260 2238 2193 2237 2178 2123 2080 1959 1917 1955 1888 1742 1631 1564 1507 1491 1442 1415 1576 1643 1655 1687 1554 1377 1224 1116 958 828 726 679 664 628 701 915 1070 1258 1347 1462 1527 1136 490 518 409 427 401 306 276 310 450 763 604 541 497 346 258 206 127 100 111 185 47 34
849 1002 1068 1136 1415 1620 1980 2273 2541 2652 2552 2553 2566 2579 2536 2419 2411 2424 2419 2403 2359 2360 2338 2318 2279 2292 2196 2215 2138 2044 1924 1845 1885 1900 1810 1660 1620 1520 1452 1435 1448 1666 1746 1701 1636 1503 1372 1269 1049 892 811 823 695 580 716 733 985 1184 1335 1421 1502 1303 1005 513 510 420 454 392 309 281 317 520 757 662 543 454 343 276 183 169 128 149 52 68 132
840 963 1036 1202 1580 2030 2132 2235 2279 2327 2492 2566 2647 2636 2596 2476 2398 2433 2429 2429 2459 2473 2452 2423 2324 2259 2205 2140 2103 1992 1909 1873 1846 1822 1841 1663 1834 1573 1528 1514 1515 1808 1781 1760 1692 1621 1502 1244 1072 898 905 885 744 677 631 782 938 1172 1285 1373 1152 1229 850 455 512 450 454 421 318 327 345 556 803 617 579 498 373 275 192 117 125 132 109 81 81
780 876 912 1176 1597 2061 2074 2250 2317 2342 2382 2402 2466 2439 2640 2509 2464 2521 2499 2470 2497 2480 2449 2399 2331 2272 2230 2178 2108 2060 1977 1880 1839 1851 1875 1806 1653 1727 1587 1558 1594 1791 1786 1769 1717 1663 1416 1151 1036 1038 1039 798 683 705 802 740 949 1050 1210 1069 1054 1112 730 467 477 466 416 360 311 272 329 668 708 632 596 490 407 302 217 124 106 83 90 134 83
739 1052 1349 1654 1937 1999 2125 2212 2248 2300 2326 2336 2395 2444 2446 2591 2549 2537 2510 2513 2506 2473 2462 2365 2292 2182 2116 2117 2059 2060 2000 1992 1994 1849 1886 1815 1850 1721 1536 1520 1654 1715 1761 1743 1746 1640 1362 1197 1151 1142 983 749 694 714 741 736 818 971 1037 760 904 807 431 490 480 460 381 360 318 289 372 859 694 662 633 519 430 307 190 97 81 79 98 108 76
726 1242 1548 1695 1878 1937 1980 2088 2186 2194 2237 2307 2361 2365 2499 2615 2468 2450 2586 2571 2470 2451 2345 2368 2155 2168 1948 2096 1910 1825 1893 1878 1842 1808 1869 1854 1754 1753 1548 1582 1644 1741 1744 1713 1617 1656 1482 1332 1254 1143 1016 792 739 906 700 531 525 783 995 538 408 570 504 467 491 445 378 406 520 285 686 780 667 690 645 575 465 327 177 96 70 75 108 162 225
924 1348 1621 1754 1799 1893 1984 2010 2084 2168 2225 2274 2274 2259 2362 2396 2410 2433 2382 2289 2381 2299 2138 2147 2036 1951 1877 1769 1726 1650 1694 1688 1704 1916 1727 1961 1803 1674 1589 1612 1528 1674 1647 1668 1680 1647 1613 1559 1435 1307 1062 909 854 260 19 71 206 564 581 320 344 503 592 488 458 426 391 394 409 341 848 694 709 716 678 586 481 337 173 127 74 81 172 209 161
1156 1362 1656 1692 1705 1772 1857 1946 1999 2099 2167 2190 2229 2306 2303 2354 2375 2324 2222 2453 2279 2331 2102 1970 1855 1704 1559 1531 1502 1410 1330 1392 1644 1693 1686 1794 1760 1613 1604 1586 1346 1220 1637 1615 1639 1616 1624 1614 1646 1487 1246 1016 572 425 0 0 0 77 179 291 328 524 576 555 434 405 406 414 327 461 877 751 796 756 660 593 512 326 221 165 84 95 120 93 80
1161 1417 1601 1602 1606 1658 1768 1762 1892 2003 2029 2072 2209 2246 2254 2299 2254 2205 2174 2232 2138 1955 1900 1801 1686 1441 1260 1314 1368 1349 1245 1379 2001 2006 1722 1795 1804 1691 1663 1587 1293 1485 1474 1479 1285 1561 1630 1676 1623 1602 1316 1023 721 551 325 0 0 0 0 289 309 511 589 593 458 408 401 534 301 619 913 910 874 731 642 620 511 356 280 184 75 47 44 66 94
1288 1486 1509 1526 1535 1624 1711 1765 1804 1906 1955 2007 2048 2086 2131 2167 2144 2093 2117 2123 1935 1883 1832 1747 1565 1277 1182 1205 1276 1304 1274 1398 1812 1587 1653 1433 1637 1536 1617 1548 1506 1574 1588 1306 1236 1346 1544 1511 1544 1409 1320 1132 945 714 490 0 0 0 180 293 290 452 539 586 510 432 436 465 287 765 1099 1028 891 754 680 646 502 400 312 182 74 64 41 45 37
1507 1573 1495 1520 1528 1569 1691 1741 1782 1774 1796 1850 1872 2026 2033 1924 1890 1933 2069 2040 1849 1818 1712 1579 1441 1350 1242 1189 1207 1298 1334 1478 1626 1601 1531 1361 1644 1660 1609 1523 1554 1553 1456 1326 1160 1220 1366 1340 1304 1329 1227 1135 971 771 500 11 0 0 127 264 270 393 485 586 562 479 448 421 294 932 1258 1146 972 834 706 579 525 431 338 186 102 91 59 38 82
1619 1593 1570 1566 1569 1570 1644 1689 1714 1663 1656 1679 1722 1874 1846 1742 1750 1892 1936 1928 1808 1759 1563 1481 1483 1487 1393 1280 1233 1197 1266 1351 1302 1219 1308 1345 1534 1613 1579 1512 1572 1510 1448 1335 1367 1316 1348 1318 1280 1214 1063 892 767 590 55 0 0 0 0 99 236 322 406 549 665 568 460 375 432 1174 1310 1275 1224 904 738 629 475 426 348 198 149 113 50 37 49
1657 1601 1646 1665 1686 1637 1789 1906 1821 1713 1679 1711 1785 1798 1698 1642 1784 2054 1836 1750 1726 1692 1552 1467 1476 1600 1585 1471 1392 1258 1221 1346 1324 1124 1109 1270 1338 1400 1477 1495 1558 1489 1400 1309 1370 1297 1335 1350 1252 1163 949 776 627 432 15 0 0 0 0 0 0 152 302 489 630 635 573 441 476 1285 1307 1309 1112 965 772 635 507 437 288 159 166 122 86 42 26
1699 1720 1788 1800 1892 1900 1963 2042 2020 1912 1746 1704 1815 1792 1705 1704 1789 1977 1826 1915 1676 1636 1528 1437 1388 1431 1571 1560 1485 1368 1256 1271 1307 1239 1159 1214 1233 1323 1280 1349 1432 1461 1363 1290 1221 1118 1173 1180 1078 957 853 785 675 536 188 30 0 0 0 0 0 0 1 164 611 597 583 518 545 1233 1355 1273 1017 1058 871 623 528 470 274 188 163 151 96 40 55
1764 1865 1938 1920 2016 2058 2122 2160 2198 2121 1938 1802 1808 1786 1686 1654 1760 1883 1865 2059 1756 1606 1520 1452 1380 1260 1409 1469 1466 1373 1264 1256 1253 1274 1284 1235 1212 1280 1227 1124 1121 1317 1330 1304 1157 1092 1096 1126 1037 975 860 716 547 385 281 0 0 0 0 0 176 0 6 352 576 572 555 536 629 1036 1399 1174 980 972 1005 710 601 512 365 285 188 149 137 89 80
1983 2079 2101 2037 2096 2212 2282 2283 2305 2470 2205 2009 1884 1917 1981 2023 1992 1874 1771 2022 1878 1658 1552 1497 1460 1398 1253 1284 1301 1291 1258 1276 1280 1274 1242 1223 1201 1155 1068 1077 1050 1013 1149 1241 1179 1121 934 987 1044 1054 909 536 428 376 58 0 0 0 6 64 230 2 24 435 561 549 534 579 628 817 1084 1305 1069 1082 990 832 719 588 424 353 240 184 164 150 133
2142 2182 2189 2298 2204 2353 2365 2430 2478 2441 2426 2352 2294 2320 2288 2200 2115 2029 1834 1811 1845 1714 1668 1563 1511 1450 1343 1292 1246 1190 1274 1297 1287 1292 1224 1227 1208 1130 962 831 749 700 726 787 856 845 738 570 593 626 484 379 397 348 0 0 0 0 0 80 165 0 9 431 556 549 503 580 603 666 770 960 1042 1086 954 756 736 874 556 458 412 233 191 179 136
1986 2168 2222 2304 2378 2490 2486 2576 2602 2555 2542 2508 2468 2469 2389 2257 2156 2028 1945 1871 1970 2003 1892 1780 1724 1684 1567 1432 1391 1296 1188 1267 1126 1040 1158 1229 1207 1149 1047 967 892 836 785 818 1008 964 778 632 515 505 463 429 454 373 0 0 0 1 9 27 4 0 27 420 508 520 488 558 568 610 669 663 593 956 786 800 679 734 855 587 549 457 323 209 169
1921 1937 2045 2255 2514 2600 2615 2645 2666 2653 2579 2556 2493 2417 2362 2270 2153 2136 2151 2157 2150 2040 1923 1860 1756 1674 1516 1447 1463 1394 1268 1113 1088 1130 1180 1222 1187 1123 1149 1031 846 819 783 770 976 1036 1006 949 1066 1064 890 491 421 368 333 0 1 5 17 48 14 0 2 331 436 484 515 586 553 561 625 561 434 640 660 971 822 682 740 831 614 567 476 381 214
1882 2048 2055 2201 2532 2587 2668 2698 2704 2661 2547 2467 2452 2363 2316 2249 2215 2228 2210 2223 2108 1979 1925 1862 1746 1644 1533 1353 1296 1272 1244 1160 1048 1024 1099 1151 1128 1042 946 861 825 755 760 1047 1232 1268 1228 1240 1175 1044 722 495 445 440 398 286 62 8 0 1 9 2 7 201 344 437 490 556 512 629 670 604 531 579 673 667 885 818 694 701 894 714 620 555 310
2010 1849 1987 2119 2240 2549 2708 2753 2735 2633 2526 2467 2434 2338 2310 2280 2298 2269 2210 2112 1959 1928 1856 1734 1626 1498 1384 1394 1278 1237 1180 1128 1016 898 835 965 1022 1006 870 865 791 723 811 1073 1230 1374 1289 1116 1050 712 474 430 447 421 380 166 312 47 0 0 0 0 0 0 251 486 512 534 563 592 648 723 624 618 837 779 744 668 798 645 847 805 916 647 543
1276 954 1602 2049 2204 2409 2581 2733 2764 2638 2479 2427 2404 2308 2251 2216 2260 2170 2130 1970 1756 1744 1557 1343 1346 1359 1388 1255 1119 1072 1105 1076 1006 833 894 817 887 787 791 786 864 900 944 1034 1191 1290 1223 948 822 580 552 534 485 466 394 25 80 363 362 3 0 144 9 0 0 387 513 547 583 637 709 679 673 1018 793 830 835 751 680 804 801 819 893 822 814
576 762 1339 1980 2093 2212 2370 2689 2740 2600 2403 2344 2316 2273 2206 2055 1834 1683 1417 1200 1190 1121 993 1044 1148 1061 896 880 870 920 900 886 831 787 749 821 859 840 928 770 903 973 1083 1121 1252 1264 1198 964 812 672 710 659 642 483 115 20 91 64 29 326 328 0 268 0 0 0 373 493 585 683 687 673 659 667 771 801 834 830 756 697 852 958 992 756 701
602 650 861 1360 1847 2068 2300 2617 2576 2414 2298 2218 2189 2018 1652 1452 1086 886 858 778 753 837 855 814 809 777 790 750 663 634 685 654 625 637 641 713 864 812 728 780 751 856 831 879 1284 1329 1155 969 883 834 810 770 640 422 172 0 10 59 140 56 295 380 333 310 69 0 414 365 327 468 390 415 451 553 663 754 793 822 810 766 701 753 839 846 704
554 743 972 1229 1528 1866 2192 2409 2162 2090 1972 1796 1923 1338 1169 1026 859 745 648 685 731 719 710 737 690 732 617 494 502 523 446 520 628 669 651 689 679 590 691 673 663 674 515 768 1072 1096 1105 1046 859 822 795 662 547 410 322 225 202 0 15 0 292 294 386 362 322 278 242 384 416 248 303 434 441 464 529 701 775 777 770 782 754 717 737 778 762
777 854 901 1216 1528 1830 2019 1991 1750 1400 1198 1378 1398 1114 980 881 788 708 640 631 609 595 623 653 691 659 527 502 489 468 346 336 433 486 566 633 633 647 668 580 657 751 809 896 865 851 950 1059 946 834 779 752 660 508 391 473 510 467 411 372 313 812 955 736 414 355 329 261 311 369 332 374 499 531 602 638 691 721 701 700 694 699 709 718 746
969 990 1068 1350 1658 1659 1677 1412 956 970 1182 1170 989 528 81 478 700 683 554 550 541 574 572 622 594 586 575 542 498 484 438 358 363 392 438 556 567 546 577 642 684 727 751 821 927 942 983 1040 874 859 861 837 747 602 590 511 554 472 524 436 391 359 926 869 634 441 272 57 82 176 219 335 336 292 474 614 721 820 801 719 658 624 609 658 695
1090 1245 1368 1414 1323 1393 1244 953 713 800 668 292 0 0 0 396 594 636 614 600 525 464 248 0 0 0 0 114 243 291 444 396 382 377 394 446 548 640 631 715 798 812 702 761 787 939 970 990 960 978 918 792 679 659 640 605 682 570 620 431 403 394 71 373 144 276 404 304 162 188 154 127 232 376 363 414 594 616 612 652 671 656 653 680 634
1033 1118 1052 1056 1067 998 830 755 702 489 85 0 0 0 0 23 262 382 240 23 0 0 0 0 0 0 0 0 0 0 0 0 0 309 422 502 688 740 801 757 686 586 728 742 781 830 901 963 924 931 862 860 743 687 647 726 666 612 542 458 443 320 236 30 318 382 505 413 252 225 116 51 238 422 355 266 335 379 460 501 517 544 575 582 555
946 903 834 858 915 955 929 880 535 192 0 2 0 0 0 0 0 0 0 0 0 0 0 0 0 36 0 0 0 0 0 0 0 0 0 611 902 822 685 465 464 536 708 753 772 814 816 776 734 790 871 792 843 791 720 680 702 623 471 342 249 136 76 506 492 660 666 666 669 431 461 212 59 225 241 100 222 176 333 480 616 649 621 563 540
924 821 871 994 1040 1008 922 822 24 0 0 0 0 0 0 0 0 0 0 0 0 0 0 0 0 0 0 0 0 0 0 0 0 0 259 387 682 585 443 436 544 657 751 757 684 602 593 682 680 725 765 665 589 590 668 640 659 665 548 466 20 20 434 508 100 127 580 802 912 1013 786 755 454 324 43 22 146 165 18 92 166 262 298 390 473
959 1036 1124 1149 989 889 716 296 0 0 0 0 0 0 0 0 0 0 0 0 0 0 0 0 0 0 0 0 0 0 0 0 0 0 0 285 314 301 333 435 501 572 488 396 380 287 426 523 675 779 874 772 626 514 509 476 523 590 576 478 476 459 518 428 266 275 206 413 653 637 641 607 584 370 224 74 2 0 2 89 182 338 572 492 339
1185 1213 1230 1229 900 719 478 374 11 2 0 0 0 0 0 0 0 0 0 0 0 0 0 0 0 0 0 0 0 0 0 0 0 0 0 0 0 0 0 309 418 395 302 256 365 398 384 299 419 499 676 709 650 673 560 609 568 529 590 564 502 536 522 407 47 188 1 209 373 496 256 226 380 468 421 369 139 36 85 349 513 397 336 448 455
1307 1314 1300 1259 814 569 602 608 454 0 0 0 0 0 0 0 0 0 0 0 0 0 0 0 0 0 0 0 0 0 0 0 0 0 0 0 0 0 0 36 33 24 0 28 244 93 86 50 75 346 424 453 455 488 542 510 498 563 539 603 508 494 440 359 264 258 125 46 63 143 69 34 27 0 0 43 347 378 493 564 570 526 603 595 454
1394 1406 1321 1253 1084 792 628 534 489 370 350 393 282 58 0 0 0 0 0 0 0 0 0 0 0 0 0 0 0 0 0 0 0 0 0 0 0 0 0 0 0 0 0 0 0 0 0 0 0 0 0 209 212 270 333 310 316 408 545 566 492 528 62 0 0 31 82 45 58 8 0 7 19 0 0 0 0 146 247 259 314 512 590 519 505
1503 1454 1395 1342 1250 1048 727 521 526 530 515 544 521 364 28 0 0 0 0 0 0 0 0 0 0 0 0 0 0 0 0 0 0 0 0 0 0 0 0 0 0 0 0 0 0 0 0 0 0 0 0 0 0 0 0 0 28 0 50 409 491 292 185 0 0 2 5 6 1 0 0 0 0 0 0 0 0 0 0 167 402 486 610 502 464
Wind_Speed
29 34 33 37 39 40 41 43 44 44 44 42 43 43 42 40 40 42 44 45 44 43 42 42 42 40 39 38 39 39 38 38 37 36 34 33 33 32 32 33 33 31 29 29 29 29 27 26 25 25 24 23 23 24 24 26 27 26 26 27 29 29 28 28 27 28 26 25 23 23 21 20 21 20 20 22 22 21 20 20 17 12 10 13 16
33 33 34 37 41 42 43 44 45 45 45 44 43 42 41 39 38 40 41 43 43 43 42 41 40 40 39 38 39 39 38 38 37 36 34 33 32 32 31 32 32 31 29 28 28 27 26 26 26 25 25 24 24 24 24 25 27 26 26 27 27 28 29 27 26 27 25 24 22 22 21 21 21 20 20 22 21 21 20 19 19 9 9 16 16
37 36 35 39 43 43 42 43 45 44 43 42 41 39 39 38 38 38 40 40 42 42 41 39 39 39 39 38 38 38 38 37 37 36 35 33 32 31 31 30 31 30 29 29 28 26 26 26 25 25 25 24 23 25 25 26 27 27 26 27 28 28 27 27 26 25 24 23 22 21 21 21 20 19 20 22 22 21 21 20 18 15 11 nan nan
42 39 38 41 44 41 41 42 43 43 41 38 37 37 37 37 37 38 38 39 39 40 40 39 38 37 38 38 37 37 36 37 36 35 34 33 32 31 30 29 30 30 29 28 28 26 25 25 25 25 25 24 24 25 25 25 27 26 25 25 26 27 26 27 26 25 24 23 22 18 13 12 15 20 21 21 23 22 21 19 18 18 18 16 16
46 42 39 41 42 40 40 41 40 42 40 36 36 37 36 36 36 38 38 38 37 37 38 39 38 37 38 37 37 37 35 35 35 35 33 33 32 32 30 29 29 29 28 27 27 26 25 25 24 25 24 23 24 25 25 25 26 26 25 24 25 25 25 26 26 25 24 22 20 16 nan nan 10 18 20 22 23 23 21 20 19 19 18 18 17
48 45 43 44 44 42 40 39 40 39 38 36 37 37 35 35 36 38 38 37 37 37 37 38 38 37 38 37 37 36 35 34 34 33 32 33 32 30 29 29 29 29 28 27 26 25 24 24 24 24 24 23 23 24 25 25 25 26 23 24 24 24 25 26 25 24 23 22 19 nan nan nan nan 12 18 20 21 nan nan nan 20 nan nan nan nan
49 47 50 47 44 43 43 40 38 36 36 36 36 36 34 33 35 36 37 37 37 38 38 38 37 36 36 36 36 36 34 33 33 32 32 32 32 31 28 28 28 28 27 26 26 25 24 23 23 23 23 23 23 24 24 24 24 25 23 21 23 24 25 26 25 23 22 nan nan nan nan nan nan 9 20 21 21 21 21 20 nan nan 19 18 nan
47 46 47 47 48 50 48 41 37 36 36 36 35 35 34 33 33 34 35 37 37 37 37 37 37 36 35 35 35 34 34 33 32 32 31 32 32 30 26 27 27 27 26 25 25 24 23 22 22 23 23 23 23 23 25 25 23 23 22 20 19 20 18 19 23 23 21 18 nan nan nan nan nan 11 17 19 21 21 22 22 19 20 nan nan nan
42 44 45 42 44 54 49 39 37 37 37 36 34 34 33 32 31 33 35 36 36 36 36 36 36 35 35 34 35 34 34 33 32 32 32 31 29 29 25 25 26 25 24 23 24 24 23 22 22 23 24 24 23 24 25 24 22 21 21 20 18 19 18 16 17 20 19 18 nan nan nan nan nan 13 17 18 19 21 22 20 20 20 nan 19 19
41 38 41 37 36 46 47 41 40 41 38 35 33 33 33 31 31 32 34 35 35 35 34 34 34 35 34 34 34 35 34 33 32 32 31 29 28 26 25 25 26 26 25 26 26 24 23 22 22 22 23 24 23 23 24 23 22 21 20 20 19 18 18 12 14 18 18 18 nan nan 14 16 14 14 16 17 18 nan nan nan 16 17 18 18 nan
47 45 43 39 36 41 44 44 46 44 40 36 34 34 32 30 30 31 33 33 34 34 34 33 34 35 35 35 36 36 35 33 32 32 31 30 27 26 26 26 24 24 25 24 25 24 22 22 21 21 23 23 24 23 23 22 21 20 20 19 18 17 14 11 13 17 17 19 nan nan 16 19 15 13 18 18 18 18 19 20 21 nan nan 21 21
49 50 47 40 40 41 43 44 44 41 40 39 36 34 32 30 30 30 30 31 32 33 33 34 34 35 36 36 37 36 35 33 32 31 30 28 27 26 25 24 24 25 24 24 25 24 22 22 22 20 21 23 23 24 23 23 22 21 20 19 18 16 13 14 18 18 17 19 18 17 18 17 15 16 20 19 18 18 18 19 20 21 20 20 20
48 47 46 42 38 42 44 44 41 39 39 38 35 33 31 29 29 29 29 28 29 31 33 34 34 34 35 36 37 37 35 33 32 31 30 28 26 25 24 24 25 26 26 26 25 25 24 22 22 21 20 21 23 24 24 25 25 24 22 22 20 19 19 21 20 20 19 19 20 20 19 17 16 20 20 19 16 17 17 18 20 20 22 21 nan
49 45 44 42 40 43 45 46 41 38 36 35 34 31 29 27 27 27 27 28 29 31 32 33 33 34 34 35 36 35 34 33 31 30 29 28 27 25 25 24 24 25 26 25 25 24 23 23 22 21 20 22 24 25 26 26 25 24 24 24 23 22 22 20 21 21 21 20 21 21 20 19 19 21 21 21 18 17 17 17 nan 20 21 nan nan
50 49 43 40 39 39 47 44 36 34 34 33 32 28 27 28 27 27 27 29 30 30 31 33 33 34 35 35 35 34 33 32 31 30 29 28 27 26 25 24 23 24 24 24 24 24 23 23 22 22 22 24 24 24 26 27 26 25 24 24 23 23 24 20 20 21 23 22 21 22 21 20 23 23 22 21 19 18 18 17 17 17 nan 21 22
52 51 47 40 34 36 40 40 33 32 34 31 29 28 29 29 27 27 27 29 29 29 30 31 31 33 33 33 33 32 32 31 30 29 27 27 27 27 26 25 24 23 23 23 24 24 23 23 23 23 23 24 24 25 26 27 26 25 24 23 22 23 24 21 21 21 23 24 23 22 22 21 23 22 23 22 21 20 18 18 nan 17 19 nan nan
49 47 45 40 34 34 35 35 31 31 31 29 29 30 30 29 27 27 28 28 28 29 30 31 32 32 32 32 31 30 31 30 29 27 26 26 26 26 26 24 24 23 22 22 23 24 24 24 23 23 24 25 25 26 27 28 27 25 23 22 22 22 25 23 21 21 23 24 24 22 21 21 23 24 24 23 22 20 19 18 17 17 nan nan 20
42 41 39 38 36 33 31 34 34 30 29 31 32 29 29 28 28 29 28 27 27 29 30 30 31 31 32 32 32 31 30 29 27 26 25 25 25 25 24 23 24 23 23 23 24 25 25 24 23 23 24 25 25 26 27 28 29 26 23 22 23 24 26 26 22 21 22 24 25 23 21 20 24 24 25 25 23 21 19 18 18 17 17 nan nan
34 33 32 32 35 33 27 29 31 29 29 30 28 27 29 28 28 28 27 26 27 29 30 30 31 31 32 33 32 31 30 28 26 25 25 25 25 25 23 23 23 22 23 23 23 24 24 24 24 23 24 25 26 26 27 28 29 28 26 24 25 26 28 25 22 22 22 24 25 25 23 22 24 25 26 25 24 22 21 20 18 nan nan 17 nan
32 31 30 30 30 32 29 32 35 32 30 27 25 25 27 29 29 27 26 25 27 29 29 29 31 32 33 32 32 29 29 27 28 25 25 25 24 22 23 23 23 21 22 22 22 23 23 24 25 24 24 24 26 27 27 28 30 29 27 27 26 26 24 23 23 23 23 23 24 25 23 23 24 25 26 26 25 23 22 nan nan nan nan 17 nan
31 27 26 28 28 31 32 32 32 26 22 21 22 23 24 27 26 25 24 25 27 29 30 30 30 31 31 31 31 28 27 26 26 24 25 22 23 22 23 23 22 21 21 21 22 22 22 23 25 24 23 24 26 27 27 27 28 29 28 28 26 24 22 23 24 24 24 23 24 24 23 25 25 25 27 27 26 25 23 nan nan nan 19 18 18
31 28 25 27 27 28 29 29 26 21 18 19 19 21 22 23 21 20 21 23 26 28 27 26 29 28 32 30 28 27 27 27 26 26 23 22 22 22 22 21 21 21 20 20 21 20 21 23 24 24 23 24 25 25 nan nan 27 29 28 27 24 22 22 22 24 24 25 25 25 23 23 26 25 26 26 27 27 26 24 21 nan nan 19 18 18
30 28 27 27 25 26 26 28 28 24 22 20 20 20 21 20 19 20 21 23 24 27 26 28 28 29 29 28 27 27 27 26 25 25 23 23 21 21 21 20 20 19 20 20 20 20 20 22 22 22 23 23 24 24 nan nan nan nan 26 23 22 21 22 23 25 24 24 25 25 22 23 25 26 27 26 26 27 27 25 22 nan nan 19 nan nan
31 29 29 26 26 24 25 26 25 21 19 17 18 18 17 18 19 20 22 24 26 26 27 28 28 28 28 28 28 26 26 25 25 26 25 23 19 19 19 19 20 19 19 19 19 19 19 20 20 21 23 23 23 24 23 nan nan nan nan 21 20 21 23 23 24 24 24 24 25 21 22 24 26 28 27 26 27 26 24 23 nan nan nan nan nan
28 26 26 25 25 25 26 25 20 16 16 16 16 17 18 19 20 22 23 24 26 26 26 27 27 28 29 29 28 26 26 24 23 23 24 23 20 18 18 18 18 18 19 19 18 17 19 19 21 23 22 21 22 22 23 nan nan nan 23 21 20 20 23 23 23 24 24 24 24 20 21 24 27 28 29 27 26 26 24 24 nan nan nan nan nan
21 21 21 23 23 24 25 24 20 17 18 18 18 18 20 20 21 21 22 23 24 25 25 26 27 28 29 28 28 27 25 24 23 24 24 22 19 18 18 18 19 19 19 18 17 18 18 18 20 21 20 20 21 21 22 nan nan nan 21 21 20 20 22 23 23 23 23 24 24 20 23 24 27 28 29 29 27 26 24 25 24 nan nan nan nan
17 17 18 19 21 21 22 23 23 22 20 19 19 19 19 19 20 20 21 21 22 24 24 26 27 27 27 27 27 24 23 23 23 23 22 20 18 17 18 18 19 18 17 18 17 16 16 17 18 18 19 19 20 20 nan nan nan nan nan nan 19 18 21 22 21 22 24 25 25 20 24 25 27 28 29 29 28 27 25 25 24 24 nan nan nan
18 17 17 18 19 20 21 22 21 21 19 18 18 18 17 17 18 18 20 20 22 23 24 25 26 26 25 23 22 21 21 21 21 21 20 19 17 17 18 18 18 17 16 17 17 16 16 16 16 16 17 18 19 19 nan nan nan nan nan nan nan 17 19 20 20 22 24 27 28 25 25 27 28 27 27 29 29 28 27 27 25 24 nan nan nan
19 18 17 18 17 19 21 20 19 19 19 19 19 18 17 17 16 18 19 19 21 22 23 23 23 23 20 19 18 18 18 19 18 18 18 17 17 17 18 17 17 15 16 15 16 15 15 15 16 16 16 17 18 17 18 nan nan nan nan nan nan nan nan 21 21 22 22 23 27 28 26 28 29 27 27 28 29 29 29 28 25 26 nan nan nan
17 17 15 14 14 17 18 19 19 19 22 23 21 18 16 15 15 16 17 19 19 20 20 20 19 19 17 16 15 15 16 17 16 15 16 15 15 16 17 17 16 15 15 15 15 16 15 16 17 16 16 16 17 17 19 nan nan nan nan nan 21 nan nan 21 22 22 21 20 21 26 25 28 29 28 28 27 28 29 30 29 27 26 25 nan nan
17 16 12 12 13 15 15 19 19 20 25 25 20 16 15 14 14 16 17 18 18 18 18 18 17 16 15 15 14 13 15 15 14 13 14 15 14 15 15 17 17 15 15 16 16 16 17 16 17 16 16 16 15 17 nan nan nan nan nan nan 19 nan nan 21 23 23 21 19 20 22 24 26 29 29 30 28 26 27 29 30 29 28 28 25 24
14 9 13 13 11 10 11 15 16 17 22 22 17 15 14 13 14 17 19 19 18 18 18 17 16 16 16 14 13 12 14 14 13 12 14 14 14 14 15 17 16 16 16 16 15 16 17 17 17 16 16 17 16 19 nan nan nan nan nan nan 19 nan nan 21 22 23 22 22 21 21 24 26 27 29 31 30 27 26 28 28 30 29 28 26 25
16 11 9 11 13 14 15 14 14 15 18 18 16 15 14 15 17 17 20 20 19 18 17 16 17 17 16 14 13 14 15 13 11 12 13 14 14 14 15 16 16 16 16 15 16 17 17 17 16 16 18 19 19 19 nan nan nan nan nan nan nan nan nan 19 20 22 23 24 25 24 24 25 27 27 30 31 28 27 26 26 29 28 29 28 26
14 9 9 6 9 12 17 16 13 15 17 18 17 16 15 16 17 19 20 21 20 18 17 17 16 16 16 15 15 15 15 12 11 12 13 13 12 13 14 15 15 16 16 16 17 17 17 17 15 17 19 20 20 20 20 nan nan nan nan nan nan nan nan 18 18 21 23 24 24 24 24 25 26 28 30 30 29 28 26 26 26 27 28 28 28
12 11 11 10 6 5 10 10 10 15 18 18 18 17 16 16 17 18 20 20 20 19 18 17 17 15 16 16 16 15 15 13 12 13 13 12 11 12 13 13 16 17 17 16 16 16 16 15 17 18 20 21 22 20 20 21 nan nan nan nan nan nan nan 17 18 19 20 22 24 24 25 25 25 27 29 32 31 28 26 26 26 27 27 28 28
11 10 11 11 6 3 6 9 12 16 18 18 18 17 16 16 16 17 19 19 20 19 18 17 17 15 14 15 15 15 14 14 15 16 13 12 13 14 14 15 16 17 17 17 17 17 16 17 19 20 21 21 22 21 20 21 22 nan nan nan nan nan nan nan 18 17 18 21 22 24 25 26 25 26 27 28 31 33 28 26 26 27 28 26 26
10 9 11 12 6 1 8 12 13 16 18 19 18 16 16 16 16 17 18 18 18 18 17 18 17 15 14 14 14 14 13 14 16 16 14 15 18 19 16 17 15 17 18 18 18 18 18 19 19 18 18 20 21 21 21 nan nan 21 20 nan nan 18 nan nan nan 20 21 21 20 22 25 26 27 24 26 27 30 34 34 29 27 27 27 26 25
11 15 17 14 4 3 10 13 14 15 17 17 16 15 16 17 18 18 17 18 18 17 17 17 17 16 15 14 13 13 13 14 15 16 14 16 16 13 16 15 14 17 19 19 18 18 19 18 20 18 17 19 19 20 20 nan nan nan nan 20 19 nan 20 nan nan nan 24 23 21 19 20 24 27 26 27 28 29 33 37 37 33 28 27 26 26
12 17 18 14 8 9 12 12 13 14 16 17 16 16 18 19 18 17 18 17 17 16 16 17 17 17 15 13 13 12 13 14 14 15 14 16 15 13 15 14 15 15 22 22 18 18 19 19 19 19 18 19 18 17 18 nan nan nan 20 nan 19 20 19 21 nan nan 23 22 23 22 19 19 23 25 26 27 27 30 34 39 39 36 34 31 27
7 11 16 16 16 14 12 12 13 14 15 15 15 15 17 19 20 18 19 17 17 18 16 15 15 15 13 13 13 13 13 14 14 14 14 14 13 13 12 12 13 16 21 17 16 15 17 18 19 19 19 19 18 18 18 20 20 nan nan nan 19 19 20 21 22 23 22 21 23 22 21 19 19 20 22 24 26 28 30 35 39 39 36 33 30
8 9 14 16 17 17 17 16 15 15 15 15 14 15 17 17 17 18 20 18 19 19 18 15 15 14 13 12 13 13 13 14 14 14 14 13 13 12 10 11 14 17 17 15 14 15 14 16 18 19 19 19 18 17 18 19 21 20 20 20 20 19 20 21 22 23 21 20 22 23 21 22 18 17 19 21 24 27 28 30 35 40 38 35 33
11 10 15 16 16 17 20 19 17 16 14 14 16 15 nan 18 20 19 20 19 20 20 18 16 15 15 15 13 13 14 14 14 14 15 15 15 14 12 12 13 15 16 17 16 16 16 17 17 19 21 20 20 19 18 17 20 20 20 21 20 20 20 21 22 22 20 19 nan nan 21 19 19 20 18 18 17 17 20 24 27 32 37 39 37 34
15 14 16 18 17 18 18 18 18 17 14 14 nan nan nan 17 21 21 22 21 18 18 19 nan nan nan nan 15 15 15 15 15 15 14 14 13 14 14 14 16 17 18 19 19 19 19 19 18 20 22 21 22 21 18 17 19 19 19 19 20 19 20 nan 20 18 18 18 18 18 19 18 16 18 20 19 19 17 16 18 22 26 33 38 38 36
16 17 18 19 19 19 18 18 17 16 nan nan nan nan nan nan 23 24 21 nan nan nan nan nan nan nan nan nan nan nan nan nan nan 13 13 13 13 14 17 18 19 20 21 20 20 20 21 22 22 23 24 23 21 20 20 20 19 20 19 19 19 20 20 nan 18 16 15 17 19 19 19 nan 17 19 22 23 21 20 18 18 20 27 34 38 38
17 18 19 20 20 20 19 19 18 17 nan nan nan nan nan nan nan nan nan nan nan nan nan nan nan nan nan nan nan nan nan nan nan nan nan 13 15 16 17 18 19 21 22 22 22 21 21 22 23 24 23 23 21 20 20 20 21 20 21 22 21 21 nan 19 20 18 18 18 19 20 19 16 nan 20 22 nan 20 19 19 19 19 20 28 37 41
16 16 18 20 20 20 20 19 nan nan nan nan nan nan nan nan nan nan nan nan nan nan nan nan nan nan nan nan nan nan nan nan nan nan 15 16 16 16 17 19 20 22 23 24 24 25 24 24 22 23 23 22 22 22 20 21 21 22 22 22 nan nan 20 19 20 20 19 18 18 18 18 17 19 20 nan nan 19 20 nan nan 19 20 20 29 36
13 14 15 17 19 20 20 21 nan nan nan nan nan nan nan nan nan nan nan nan nan nan nan nan nan nan nan nan nan nan nan nan nan nan nan 16 17 17 18 19 20 21 22 24 24 24 24 23 23 23 22 22 23 22 20 20 22 21 23 24 24 23 21 22 21 21 21 19 19 19 18 18 19 20 19 nan nan nan nan nan 19 21 21 22 25
12 13 13 15 18 19 21 22 nan nan nan nan nan nan nan nan nan nan nan nan nan nan nan nan nan nan nan nan nan nan nan nan nan nan nan nan nan nan nan 19 20 20 21 22 22 21 23 23 23 23 23 23 22 22 22 23 21 21 22 23 23 24 24 23 nan 22 nan 22 21 19 20 21 19 19 18 17 17 nan nan 16 13 14 16 17 19
11 12 12 14 16 18 20 21 23 nan nan nan nan nan nan nan nan nan nan nan nan nan nan nan nan nan nan nan nan nan nan nan nan nan nan nan nan nan nan nan nan nan nan nan 20 nan nan nan nan 23 24 23 23 23 24 23 23 22 23 24 25 25 25 24 24 24 24 nan nan 22 nan nan nan nan nan nan 18 18 18 17 15 14 13 14 16
11 12 14 15 16 18 18 21 24 26 26 26 26 nan nan nan nan nan nan nan nan nan nan nan nan nan nan nan nan nan nan nan nan nan nan nan nan nan nan nan nan nan nan nan nan nan nan nan nan nan nan 25 24 26 26 25 25 26 24 23 25 25 nan nan nan nan nan nan nan nan nan nan nan nan nan nan nan 22 19 19 20 18 17 15 15
12 13 15 16 18 20 21 24 27 28 28 27 27 26 nan nan nan nan nan nan nan nan nan nan nan nan nan nan nan nan nan nan nan nan nan nan nan nan nan nan nan nan nan nan nan nan nan nan nan nan nan nan nan nan nan nan nan nan nan 26 26 26 26 nan nan nan nan nan nan nan nan nan nan nan nan nan nan nan nan 28 25 22 19 17 16
Wind_Direction
280 284 285 289 293 293 293 293 293 293 296 297 298 299 298 296 296 294 293 292 292 292 292 293 293 295 296 297 298 300 300 300 300 300 300 300 300 300 299 296 294 292 291 291 290 284 281 282 280 277 277 278 280 279 280 281 278 274 270 265 260 258 256 253 251 249 248 246 250 255 257 255 252 253 251 248 249 249 245 240 236 220 206 220 225
283 283 285 288 292 293 295 295 294 295 298 298 299 299 297 296 293 291 290 290 290 290 291 292 294 296 298 299 300 300 301 300 300 299 299 300 300 299 297 296 294 293 291 290 289 284 281 281 278 277 277 277 278 278 279 281 279 277 273 269 265 259 255 251 250 251 250 250 250 251 254 256 257 255 253 250 248 248 245 242 238 207 200 226 223
278 281 283 288 290 290 292 294 294 295 297 298 298 298 295 293 291 289 288 288 288 289 290 292 294 297 299 299 299 300 300 299 298 298 299 299 298 297 297 295 294 294 292 290 288 285 283 282 279 279 278 277 279 280 279 281 280 275 273 271 266 260 256 251 249 253 253 252 252 254 259 261 260 257 253 249 248 247 244 240 237 230 223 nan nan
281 280 282 286 288 286 287 289 290 291 292 295 296 296 294 292 290 288 287 286 286 288 290 292 294 295 296 298 299 299 298 297 297 297 297 297 296 295 296 296 295 294 292 291 290 285 280 279 277 275 276 279 281 280 280 281 281 277 275 271 267 263 258 253 248 248 250 248 246 242 239 242 253 260 257 251 250 250 249 244 241 238 237 235 234
281 283 283 284 281 281 283 283 284 288 289 291 295 296 293 290 289 289 287 285 285 287 290 293 295 296 296 296 297 297 297 296 296 296 296 295 294 295 296 296 295 295 293 289 286 281 277 274 273 274 276 278 279 281 282 282 281 279 274 271 270 265 259 252 248 247 248 249 249 243 nan nan 250 260 257 253 248 248 248 244 241 237 233 234 235
285 287 288 286 281 277 277 279 282 285 287 288 293 295 292 290 289 288 287 286 287 289 292 293 295 296 296 297 297 296 295 295 296 295 295 294 294 296 296 297 295 294 292 290 287 281 276 272 271 272 274 276 277 282 283 280 278 279 276 276 274 269 262 253 248 246 247 246 239 nan nan nan nan 246 262 256 249 nan nan nan 241 nan nan nan nan
284 289 294 291 285 281 279 277 280 281 282 285 289 292 291 289 288 288 288 287 288 290 292 294 295 296 297 297 297 296 295 295 295 294 293 294 291 292 298 296 294 293 291 289 285 281 275 273 270 268 271 276 280 281 281 281 279 279 276 276 277 276 270 254 247 246 240 nan nan nan nan nan nan 244 255 254 252 250 250 246 nan nan 236 235 nan
273 277 283 287 288 291 284 278 278 279 280 281 285 288 289 287 286 285 286 287 288 290 292 294 296 297 296 296 296 296 295 295 294 294 292 291 293 293 294 294 291 289 290 288 285 281 275 272 270 268 269 273 277 278 275 274 273 272 274 275 274 275 264 239 247 248 241 232 nan nan nan nan nan 244 260 257 253 249 249 250 246 244 nan nan nan
280 280 278 279 285 293 287 281 283 283 281 280 283 287 286 284 283 283 285 287 289 292 294 295 296 296 295 295 295 295 295 294 293 293 292 292 293 295 296 292 290 288 287 285 284 280 275 270 266 265 268 270 270 270 269 268 269 268 270 273 268 261 257 247 244 239 236 234 nan nan nan nan nan 241 258 256 253 251 248 245 247 249 nan 241 238
283 282 278 272 278 287 283 281 286 286 283 282 283 286 283 280 280 281 284 287 291 293 295 295 295 295 295 294 294 294 293 293 292 293 291 292 294 295 294 290 289 288 285 283 282 279 274 268 267 265 264 268 269 268 268 268 267 267 269 267 264 260 256 250 247 241 237 239 nan nan 239 244 239 248 259 257 258 nan nan nan 252 249 247 251 nan
281 281 279 277 277 283 282 283 288 286 284 282 283 283 279 277 277 279 283 288 292 294 295 296 296 296 296 295 294 292 290 290 289 288 289 290 290 290 291 289 287 288 286 286 284 281 275 269 264 263 264 263 263 263 264 265 266 264 266 268 266 262 265 260 255 249 244 243 nan nan 245 247 244 249 267 265 263 260 256 253 250 nan nan 252 249
280 279 278 280 279 276 280 285 286 283 281 278 279 279 275 274 276 280 283 287 291 294 296 296 295 295 294 294 292 291 290 289 287 286 287 288 290 290 290 288 283 283 286 284 283 279 273 268 265 261 259 262 263 262 261 258 256 255 255 256 255 254 254 265 264 265 253 247 245 239 241 243 249 257 267 267 265 261 258 254 255 252 251 252 249
281 281 272 274 281 281 278 278 280 278 274 272 273 273 270 272 274 279 282 284 289 291 293 293 292 291 292 291 290 289 289 289 288 288 288 290 291 291 289 286 282 279 280 280 279 278 274 270 267 264 258 255 255 256 255 251 249 248 247 245 243 240 246 271 267 269 259 250 244 244 243 243 249 266 266 265 264 261 259 255 253 254 249 249 nan
282 286 275 271 279 286 282 273 267 268 264 263 265 264 264 265 269 275 278 281 285 287 288 288 289 289 289 288 289 288 288 289 289 289 290 290 291 290 289 287 284 282 281 280 278 276 274 271 267 265 261 254 250 250 249 248 247 245 245 244 242 239 243 258 262 263 260 252 247 246 243 244 249 263 267 266 264 264 261 257 nan 255 254 nan nan
281 287 279 269 270 282 289 268 255 259 254 253 254 253 255 256 261 267 274 280 284 285 286 286 286 287 287 287 286 287 288 289 289 289 289 289 289 289 289 287 284 282 279 275 274 273 273 270 265 264 260 254 249 247 247 246 246 246 246 245 243 240 247 249 254 257 259 255 249 248 246 246 259 262 265 266 267 266 266 260 256 257 nan 253 251
280 284 280 274 275 281 274 265 258 257 253 253 250 249 252 254 260 267 273 278 282 283 283 283 283 284 283 283 285 287 289 288 287 287 287 287 287 288 287 288 286 283 278 273 271 271 270 267 263 260 259 255 248 244 245 246 246 246 248 248 244 245 254 254 252 253 257 257 252 249 250 250 264 266 267 265 261 259 263 261 nan 256 254 nan nan
273 278 282 280 277 274 269 264 267 264 252 252 252 256 259 257 260 267 272 276 280 281 281 280 280 280 281 282 283 284 285 286 285 284 284 283 283 284 285 286 286 284 279 272 268 266 265 264 261 258 257 253 246 240 239 241 242 242 243 245 245 244 263 262 254 254 256 258 255 252 252 255 266 269 271 270 270 267 265 268 265 259 nan nan 254
274 276 281 281 276 273 270 268 266 257 252 257 260 261 259 259 261 266 271 273 275 276 275 275 276 279 281 281 281 282 284 285 284 283 282 282 279 279 280 283 284 283 278 272 266 262 262 262 260 259 256 253 250 243 240 239 237 235 234 238 241 246 267 264 252 253 253 256 254 251 250 258 268 271 274 273 273 271 270 268 267 265 261 nan nan
280 274 273 276 278 276 271 269 265 260 256 252 248 252 259 262 262 266 269 271 272 274 275 276 279 278 280 281 282 283 285 286 286 284 281 280 282 277 276 278 280 280 276 272 266 262 260 260 260 257 256 255 251 247 242 239 235 231 228 229 234 248 265 255 250 251 251 253 256 253 250 260 264 271 274 274 274 273 268 267 267 nan nan 254 nan
279 278 276 273 277 275 274 271 265 259 249 242 242 243 259 266 264 265 268 271 274 274 273 277 279 279 282 282 284 283 285 285 289 284 287 286 281 275 281 279 279 277 275 272 268 261 258 257 257 255 253 253 251 248 243 239 235 231 227 226 228 241 251 252 250 248 249 254 253 256 257 263 268 272 273 273 273 273 268 nan nan nan nan 261 nan
279 278 276 276 280 284 288 277 263 255 247 245 246 249 260 265 264 268 271 273 273 275 276 278 279 280 280 279 276 275 277 279 280 279 289 281 285 286 287 283 282 280 278 274 269 263 259 256 255 254 251 248 247 247 243 240 236 231 228 228 227 230 243 251 252 249 246 245 248 252 257 267 268 269 271 273 273 272 272 nan nan nan 262 259 260
285 288 285 280 277 277 286 284 276 279 271 261 255 252 253 257 250 253 257 266 271 273 269 269 273 269 280 275 276 278 279 279 281 285 282 285 286 292 290 289 286 286 281 277 273 268 263 259 256 253 251 248 246 249 nan nan 237 234 230 229 225 227 232 246 249 251 246 244 245 247 258 265 264 265 267 270 272 272 271 268 nan nan 262 262 258
288 291 291 290 290 288 288 291 297 295 281 263 251 242 241 241 244 249 255 263 266 264 262 266 264 269 271 274 278 278 280 281 281 287 287 288 286 293 293 291 288 285 285 281 276 271 266 263 261 258 254 251 251 250 nan nan nan nan 232 226 224 225 229 241 245 249 248 243 244 248 258 261 263 263 263 266 269 270 270 269 nan nan 263 nan nan
293 295 295 297 301 301 299 298 303 296 278 255 239 235 239 242 248 251 255 256 259 262 265 270 271 274 276 276 279 281 281 284 293 300 296 283 279 292 292 292 291 288 286 274 277 272 272 270 266 261 254 251 252 250 248 nan nan nan nan 229 222 221 229 238 245 247 248 245 245 251 260 262 264 264 263 263 265 268 268 267 nan nan nan nan nan
298 295 296 301 301 302 302 299 295 285 270 253 243 242 245 248 252 257 260 262 265 266 270 273 278 279 279 280 281 282 282 284 280 277 276 275 272 271 273 269 268 266 270 265 265 263 263 260 255 253 255 254 251 250 249 nan nan nan 243 232 223 217 223 235 242 244 244 244 245 253 261 262 263 265 265 263 262 264 267 266 nan nan nan nan nan
300 304 308 305 306 306 305 296 283 271 265 252 245 249 251 252 256 260 262 262 267 270 272 276 279 280 281 284 284 284 283 281 277 273 270 270 273 274 273 270 267 266 263 269 264 264 262 262 261 260 255 253 253 250 251 nan nan nan 240 236 228 215 221 232 239 243 243 242 242 253 256 260 262 265 265 264 260 260 261 263 263 nan nan nan nan
318 316 310 306 304 301 297 288 276 267 260 249 243 245 251 256 259 262 265 266 268 272 274 276 277 279 281 284 286 287 285 280 276 271 269 269 274 274 274 270 270 270 268 270 268 267 268 264 260 258 254 252 249 248 nan nan nan nan nan nan 231 219 223 231 239 243 244 241 239 248 249 253 258 263 262 263 262 259 257 259 261 262 nan nan nan
319 316 310 305 306 307 301 293 277 267 257 250 251 256 260 264 268 272 267 272 273 274 274 275 275 278 281 283 284 287 285 278 273 272 270 269 274 273 270 270 269 267 264 265 268 266 266 263 260 255 253 251 251 250 nan nan nan nan nan nan nan 225 227 235 242 248 249 243 235 238 244 245 252 257 260 261 262 259 255 256 258 260 nan nan nan
316 312 308 310 317 311 302 292 274 262 256 260 262 260 261 262 265 268 271 278 272 274 274 273 275 278 281 285 286 287 278 275 274 272 270 271 271 270 269 269 267 265 259 260 262 265 262 261 257 254 252 251 251 247 249 nan nan nan nan nan nan nan nan 238 243 251 257 253 240 235 243 244 249 251 258 259 259 259 256 255 255 257 nan nan nan
306 300 305 309 312 308 294 276 266 266 272 272 264 261 261 265 269 273 274 275 273 272 271 273 275 279 281 282 283 281 282 281 279 273 276 272 269 264 263 264 262 254 253 258 255 260 264 260 257 255 253 254 251 250 251 nan nan nan nan nan 247 nan nan 245 247 253 257 260 250 239 245 246 248 248 253 257 259 259 258 257 255 255 257 nan nan
288 299 292 289 308 318 293 268 263 274 280 272 263 261 264 270 272 271 271 268 269 271 270 272 272 273 274 274 276 275 276 276 277 275 270 272 268 264 259 254 255 250 247 251 250 256 257 262 262 261 256 253 254 251 nan nan nan nan nan nan 251 nan nan 244 243 248 251 252 253 247 244 251 249 248 251 254 256 259 260 259 258 254 255 255 257
282 287 285 268 287 309 280 263 270 284 279 266 263 266 270 270 267 265 265 261 264 263 266 267 272 267 266 268 268 268 267 269 272 271 270 268 266 261 255 255 254 252 248 247 247 249 254 254 256 257 258 258 253 253 nan nan nan nan nan nan 250 nan nan 255 248 246 245 246 246 244 242 243 250 252 251 250 249 252 260 260 261 259 257 256 256
301 299 267 266 274 269 266 256 272 279 271 268 267 265 264 264 260 258 259 261 260 262 266 268 266 266 266 264 264 262 261 270 271 272 270 267 264 257 254 252 251 252 247 248 251 250 250 251 250 253 255 256 257 254 nan nan nan nan nan nan nan nan nan 257 257 255 248 242 239 238 241 241 242 249 250 248 247 246 253 258 262 261 260 257 257
259 263 250 260 271 262 258 255 267 270 264 264 264 265 265 260 254 253 258 261 263 265 266 266 267 269 271 266 262 261 268 266 266 262 265 266 261 258 253 251 251 250 248 246 247 248 249 251 250 255 259 261 258 254 255 nan nan nan nan nan nan nan nan 265 265 264 258 254 250 244 240 240 241 242 242 244 244 245 246 250 261 261 262 259 258
231 224 236 241 232 230 252 255 262 261 263 266 266 267 266 266 263 260 261 266 267 267 263 264 267 268 270 268 262 259 258 257 247 249 253 258 257 248 243 244 247 246 248 248 252 252 254 254 256 256 254 255 259 256 260 260 nan nan nan nan nan nan nan 262 266 268 266 261 259 252 246 243 243 242 240 238 237 241 244 247 254 260 262 259 258
242 232 229 233 205 181 260 263 263 266 265 265 261 265 269 268 267 270 265 267 271 274 273 272 273 268 266 263 260 259 254 255 256 250 245 241 236 232 221 226 238 244 247 247 247 251 253 255 254 257 258 253 258 255 254 256 255 nan nan nan nan nan nan nan 258 268 265 263 262 258 254 247 245 247 245 242 236 234 237 244 247 254 261 263 261
270 259 254 231 201 292 281 275 275 273 266 259 257 259 263 268 269 267 269 271 274 276 276 276 276 275 269 267 265 268 264 257 255 257 247 237 230 222 216 205 221 237 242 245 246 245 250 255 250 251 258 263 260 258 251 nan nan 254 255 nan nan 247 nan nan nan 257 262 267 265 261 256 250 246 249 251 250 242 235 232 235 241 245 255 262 260
275 266 245 225 207 259 261 268 266 263 263 262 263 265 267 268 267 271 274 273 275 278 278 278 276 271 266 263 260 259 259 258 262 265 259 251 242 227 217 214 206 222 231 236 238 242 243 249 254 247 254 261 258 258 250 nan nan nan nan 253 248 nan 246 nan nan nan 255 258 263 268 265 257 249 244 248 253 249 242 237 233 232 235 241 252 255
295 282 252 225 239 265 261 269 273 268 267 266 264 266 273 273 273 275 274 276 275 273 275 273 274 274 272 273 271 267 264 261 258 260 260 257 245 223 222 217 215 219 226 227 231 236 240 241 254 252 250 256 263 260 257 nan nan nan 252 nan 253 252 248 248 nan nan 252 253 256 258 263 264 256 249 249 253 255 251 245 239 236 236 237 237 245
257 273 266 260 276 283 280 278 279 277 271 268 271 274 280 287 288 284 281 281 279 279 271 273 273 277 277 277 275 274 269 267 263 257 253 255 249 240 228 215 220 225 238 237 231 237 246 249 253 260 261 254 250 255 253 254 247 nan nan nan 251 255 255 248 247 248 246 244 249 253 256 263 261 255 257 259 261 260 256 247 240 238 238 239 243
247 269 276 277 291 299 298 297 287 285 286 286 286 289 287 285 286 291 296 294 293 288 281 276 272 273 275 275 270 270 264 261 259 256 253 248 244 244 241 231 229 231 242 245 242 244 248 253 256 252 258 255 250 249 246 249 252 246 238 244 249 248 255 256 250 244 241 236 240 243 251 255 258 260 260 263 264 263 262 255 245 240 238 239 242
272 276 285 290 290 293 294 291 286 286 288 293 295 292 nan 301 300 302 297 292 289 287 283 273 269 267 267 263 258 256 253 250 250 247 243 241 239 236 236 232 233 234 238 236 239 244 247 246 250 246 246 255 254 253 250 250 243 249 248 247 246 246 248 254 259 252 247 nan nan 240 234 248 254 254 259 269 268 267 265 261 250 242 238 238 240
282 285 283 283 283 283 284 286 288 288 286 288 nan nan nan 287 292 297 297 290 284 284 285 nan nan nan nan 262 257 254 254 251 254 252 247 241 238 234 230 231 232 234 238 236 236 241 247 251 250 255 249 248 253 254 251 249 252 251 249 250 249 250 nan 250 254 257 251 251 250 245 240 231 242 254 260 262 266 266 265 264 255 245 239 237 239
283 279 279 285 282 282 284 286 289 288 nan nan nan nan nan nan 277 287 285 nan nan nan nan nan nan nan nan nan nan nan nan nan nan 256 253 251 250 242 235 234 234 235 238 241 241 240 244 246 247 249 255 251 251 249 250 247 252 257 249 252 254 254 250 nan 252 248 248 254 254 254 253 nan 240 246 250 250 252 259 263 266 261 250 241 237 237
286 285 284 285 284 292 295 298 298 296 nan nan nan nan nan nan nan nan nan nan nan nan nan nan nan nan nan nan nan nan nan nan nan nan nan 262 252 250 248 244 240 239 241 242 242 243 243 246 248 250 253 256 254 252 249 252 251 251 261 256 250 253 nan 252 249 248 245 251 253 262 267 264 nan 243 250 nan 256 261 263 261 257 254 246 238 236
290 288 288 291 292 297 298 296 nan nan nan nan nan nan nan nan nan nan nan nan nan nan nan nan nan nan nan nan nan nan nan nan nan nan 255 259 259 255 251 249 244 241 239 241 242 242 244 246 249 252 252 253 257 254 252 251 255 253 255 256 nan nan 256 252 252 252 245 248 252 255 258 251 247 250 nan nan 251 244 nan nan 249 246 247 245 238
297 291 290 295 300 302 301 300 nan nan nan nan nan nan nan nan nan nan nan nan nan nan nan nan nan nan nan nan nan nan nan nan nan nan nan 259 260 257 256 252 251 248 244 244 241 243 244 245 246 250 252 253 254 257 259 256 254 252 255 257 256 256 261 255 254 254 252 250 251 252 252 250 251 253 248 nan nan nan nan nan 251 247 253 252 246
300 291 293 294 302 302 299 300 nan nan nan nan nan nan nan nan nan nan nan nan nan nan nan nan nan nan nan nan nan nan nan nan nan nan nan nan nan nan nan 255 253 250 250 248 248 245 246 243 246 248 249 252 258 262 260 262 258 256 254 256 256 256 253 254 nan 256 nan 259 252 243 248 252 252 249 244 249 254 nan nan 275 275 253 250 257 256
287 294 291 293 292 290 289 288 285 nan nan nan nan nan nan nan nan nan nan nan nan nan nan nan nan nan nan nan nan nan nan nan nan nan nan nan nan nan nan nan nan nan nan nan 249 nan nan nan nan 251 253 250 254 258 260 260 257 258 257 253 256 255 254 254 253 252 254 nan nan 248 nan nan nan nan nan nan 252 253 254 265 272 260 253 254 256
290 287 282 280 280 277 277 275 272 270 273 276 278 nan nan nan nan nan nan nan nan nan nan nan nan nan nan nan nan nan nan nan nan nan nan nan nan nan nan nan nan nan nan nan nan nan nan nan nan nan nan 257 253 257 259 258 258 259 257 259 254 251 nan nan nan nan nan nan nan nan nan nan nan nan nan nan nan 254 254 259 265 264 258 257 264
276 286 287 286 279 271 262 257 255 257 262 267 273 281 nan nan nan nan nan nan nan nan nan nan nan nan nan nan nan nan nan nan nan nan nan nan nan nan nan nan nan nan nan nan nan nan nan nan nan nan nan nan nan nan nan nan nan nan nan 253 255 254 254 nan nan nan nan nan nan nan nan nan nan nan nan nan nan nan nan 247 253 255 255 260 266